Flag for U.S.A. Weather past 2 weeks in Greensboro, North Carolina, U.S.A.

Now
75 °F

Broken clouds.


Feels Like: 77 °F
Forecast: 61 / 76 °F
Wind: No wind

Location: Piedmont Triad International Airport

Current Time: Sep 18, 2014 at 2:32:51 PM

Latest Report: Sep 18, 2014 at 1:54 PM


Visibility: 10 mi

Pressure: 29.98 "Hg

Humidity: 64%

Dew point: 62 °F

Location of GreensboroLocation

Historic Weather in Greensboro — Graph

°F

Greensboro temperature yesterday

Maximum temperature yesterday: 77 °F (at 3:54 PM)
Minimum temperature yesterday: 62 °F (at 4:54 AM)
Average temperature yesterday: 68 °F

Past Weeks' High & Low Weather Summary

 TemperatureHumidityPressure
High90 °F (Sep 3, 2:54 PM)100% (Sep 4, 2:01 AM)30.28 "Hg (Sep 4, 2:01 AM)
Low61 °F (Sep 18, 6:54 AM)47% (Sep 3, 2:54 PM)29.91 "Hg (Sep 17, 5:54 PM)
Average71 °F83%30.07 "Hg
* Reported Sep 3 12:54 PM — Sep 18 12:54 PM, Greensboro, Weather by CustomWeather, © 2014

Note: Actual official high and low records may vary slightly from our data, if they occured in-between our weather recording intervals... More about our weather records

Advertising

Greensboro weather history for previous 24 hours

 ConditionsComfort  
Time TempWeatherWind HumidityBarometerVisibility
12:54 PM
Sep 18
71 °FBroken clouds.3 mph81%30.00 "Hg10 mi
11:54 AM72 °FBroken clouds.No wind71%30.00 "Hg10 mi
10:54 AM71 °FBroken clouds.No wind76%30.01 "Hg10 mi
9:54 AM69 °FScattered clouds.5 mph79%29.99 "Hg7 mi
8:54 AM65 °FFog.3 mph94%29.99 "Hg3 mi
8:01 AM63 °FFog.No wind94%30.00 "Hg3 mi
6:54 AM61 °FFog.3 mph97%29.96 "Hg4 mi
6:03 AM63 °FFog.No wind94%29.97 "Hg5 mi
5:54 AM62 °FFog.No wind96%29.95 "Hg5 mi
5:01 AM63 °FFog.No wind94%29.96 "Hg3 mi
3:54 AM62 °FFog.No wind96%29.93 "Hg5 mi
2:54 AM63 °FFog.No wind93%29.93 "Hg6 mi
1:54 AM64 °FFog.No wind90%29.94 "Hg6 mi
12:54 AM64 °FPassing clouds.3 mph90%29.94 "Hg7 mi
11:54 PM
Sep 17
64 °FPassing clouds.3 mph90%29.94 "Hg9 mi
10:54 PM64 °FPassing clouds.3 mph90%29.95 "Hg8 mi
9:54 PM66 °FPassing clouds.3 mph87%29.96 "Hg8 mi
8:54 PM67 °FPassing clouds.5 mph85%29.94 "Hg9 mi
7:54 PM69 °FScattered clouds.3 mph79%29.93 "Hg10 mi
6:54 PM72 °FBroken clouds.6 mph71%29.92 "Hg10 mi
5:54 PM73 °FPartly sunny.7 mph66%29.91 "Hg10 mi
4:54 PM75 °FBroken clouds.7 mph64%29.92 "Hg10 mi
3:54 PM77 °FPartly sunny.3 mph60%29.93 "Hg10 mi
2:54 PM75 °FPartly sunny.3 mph64%29.93 "Hg10 mi
Weather by CustomWeather, © 2014

See weather overviewHow to use our weather pages